Location: Tr�vern
(48.0333°N, 4.6000°W)
Time: 18:09:22
(UTC+00:00)

Meteor 2-4 Rocket - Pass Details

Date: 14 July 2020
Orbit: 799 x 908 km, 81.2° (Epoch: 12 August)

Event Time Altitude Azimuth Distance (km) Brightness Sun altitude
Rises 01:55:45 0° 348° (NNW) 3,550 7.9 -17.4°
Reaches altitude 10° 01:58:14 10° 348° (NNW) 2,604 7.1 -17.2°
Maximum altitude 02:04:13 90° 262° (W) 911 3.8 -16.8°
Enters shadow 02:08:32 19° 171° (S) 1,983 5.2 -16.5°
